Wetterdaten: Woche 11.07.16 - 17.07.16 (KW28)
Datum Zeit Temperatur Luftfeuchte Luftdruck Niederschlag Windrichtung Sonnenschein Solar Wind
11.07.2016 00:00 22,5 C 74 % 1010,2 hPa 0,0 l/m W-SW 0,00 h 0 W/m 6,7 km/h (2 Bft)
11.07.2016 01:00 21,9 C 74 % 1010,4 hPa 0,0 l/m W 0,00 h 0 W/m 6,8 km/h (2 Bft)
11.07.2016 02:00 19,4 C 86 % 1010,3 hPa 0,0 l/m N 0,00 h 0 W/m 0,0 km/h (0 Bft)
11.07.2016 03:00 19,2 C 89 % 1009,9 hPa 0,0 l/m N 0,00 h 0 W/m 0,0 km/h (0 Bft)
11.07.2016 04:00 18,8 C 93 % 1009,4 hPa 0,0 l/m N 0,00 h 0 W/m 0,4 km/h (0 Bft)
11.07.2016 05:00 18,5 C 93 % 1009,2 hPa 0,0 l/m N 0,00 h 10 W/m 0,0 km/h (0 Bft)
11.07.2016 06:00 18,8 C 93 % 1009,0 hPa 0,0 l/m N 0,00 h 36 W/m 0,0 km/h (0 Bft)
11.07.2016 07:00 20,0 C 90 % 1009,4 hPa 0,0 l/m N 0,17 h 126 W/m 0,0 km/h (0 Bft)
11.07.2016 08:00 22,8 C 80 % 1009,7 hPa 0,0 l/m W-SW 0,67 h 260 W/m 5,5 km/h (1 Bft)
11.07.2016 09:00 24,4 C 77 % 1009,7 hPa 0,0 l/m SW 1,00 h 486 W/m 12,2 km/h (2 Bft)
11.07.2016 10:00 26,0 C 72 % 1009,4 hPa 0,0 l/m SW 1,00 h 628 W/m 16,4 km/h (3 Bft)
11.07.2016 11:00 27,3 C 63 % 1009,4 hPa 0,0 l/m SW 0,83 h 674 W/m 17,0 km/h (3 Bft)
11.07.2016 12:00 27,5 C 58 % 1009,3 hPa 0,0 l/m W-NW 0,67 h 473 W/m 15,7 km/h (3 Bft)
11.07.2016 13:00 28,3 C 57 % 1009,1 hPa 0,0 l/m W-SW 1,00 h 701 W/m 17,2 km/h (3 Bft)
11.07.2016 14:00 28,1 C 57 % 1008,7 hPa 0,0 l/m W-SW 0,25 h 340 W/m 16,2 km/h (3 Bft)
11.07.2016 15:00 27,3 C 61 % 1008,3 hPa 0,0 l/m W 0,00 h 243 W/m 15,2 km/h (3 Bft)
11.07.2016 16:00 26,4 C 61 % 1008,8 hPa 0,0 l/m W 0,00 h 141 W/m 22,0 km/h (4 Bft)
11.07.2016 17:00 24,1 C 66 % 1008,8 hPa 0,0 l/m W-SW 0,00 h 92 W/m 12,4 km/h (3 Bft)
11.07.2016 18:00 22,8 C 69 % 1009,0 hPa 0,0 l/m W-SW 0,00 h 44 W/m 14,4 km/h (3 Bft)
11.07.2016 19:00 22,5 C 72 % 1009,4 hPa 0,0 l/m SW 0,00 h 75 W/m 13,8 km/h (3 Bft)
11.07.2016 20:00 22,1 C 77 % 1010,1 hPa 0,0 l/m SW 0,08 h 19 W/m 15,8 km/h (3 Bft)
11.07.2016 21:00 20,8 C 85 % 1010,2 hPa 0,0 l/m SW 0,00 h 8 W/m 13,2 km/h (3 Bft)
11.07.2016 22:00 20,4 C 88 % 1010,0 hPa 0,0 l/m SW 0,00 h 0 W/m 5,2 km/h (1 Bft)
11.07.2016 23:00 20,1 C 91 % 1010,3 hPa 2,2 l/m SW 0,00 h 0 W/m 7,2 km/h (2 Bft)
12.07.2016 00:00 19,2 C 96 % 1010,5 hPa 0,2 l/m W-SW 0,00 h 0 W/m 8,2 km/h (2 Bft)
12.07.2016 01:00 19,0 C 97 % 1010,6 hPa 0,0 l/m SW 0,00 h 0 W/m 11,0 km/h (2 Bft)
12.07.2016 02:00 18,7 C 98 % 1010,4 hPa 0,0 l/m SW 0,00 h 0 W/m 3,5 km/h (1 Bft)
12.07.2016 03:00 18,5 C 98 % 1010,2 hPa 4,4 l/m SW 0,00 h 0 W/m 2,1 km/h (1 Bft)
12.07.2016 04:00 17,8 C 98 % 1010,6 hPa 7,8 l/m SW 0,00 h 0 W/m 3,0 km/h (1 Bft)
12.07.2016 05:00 17,2 C 99 % 1010,6 hPa 1,4 l/m N 0,00 h 0 W/m 1,3 km/h (1 Bft)
12.07.2016 06:00 16,9 C 99 % 1010,7 hPa 4,2 l/m S-SW 0,00 h 7 W/m 2,9 km/h (1 Bft)
12.07.2016 07:00 16,5 C 98 % 1010,8 hPa 6,6 l/m O-SO 0,00 h 19 W/m 4,1 km/h (1 Bft)
12.07.2016 08:00 16,1 C 98 % 1010,8 hPa 0,8 l/m O-SO 0,00 h 56 W/m 2,5 km/h (1 Bft)
12.07.2016 09:00 16,2 C 96 % 1010,9 hPa 0,8 l/m O 0,00 h 96 W/m 2,3 km/h (1 Bft)
12.07.2016 10:00 16,3 C 95 % 1010,9 hPa 0,2 l/m O 0,00 h 114 W/m 7,0 km/h (2 Bft)
12.07.2016 11:00 17,8 C 92 % 1010,9 hPa 0,0 l/m O-NO 0,25 h 375 W/m 7,1 km/h (2 Bft)
12.07.2016 12:00 18,8 C 85 % 1011,1 hPa 0,6 l/m O-NO 0,08 h 181 W/m 7,5 km/h (2 Bft)
12.07.2016 13:00 17,2 C 95 % 1011,1 hPa 3,4 l/m N-NO 0,00 h 64 W/m 5,7 km/h (1 Bft)
12.07.2016 14:00 16,9 C 97 % 1011,3 hPa 1,2 l/m N-NO 0,00 h 81 W/m 3,6 km/h (1 Bft)
12.07.2016 15:00 16,9 C 96 % 1011,1 hPa 1,2 l/m N 0,00 h 88 W/m 0,0 km/h (0 Bft)
12.07.2016 16:00 16,8 C 96 % 1011,4 hPa 1,6 l/m N 0,00 h 50 W/m 0,0 km/h (0 Bft)
12.07.2016 17:00 16,3 C 97 % 1011,7 hPa 3,6 l/m N-NO 0,00 h 36 W/m 4,0 km/h (1 Bft)
12.07.2016 18:00 16,0 C 98 % 1011,6 hPa 1,4 l/m N-NO 0,00 h 30 W/m 2,7 km/h (1 Bft)
12.07.2016 19:00 15,8 C 98 % 1011,6 hPa 0,2 l/m N 0,00 h 25 W/m 6,8 km/h (2 Bft)
12.07.2016 20:00 15,4 C 99 % 1011,6 hPa 0,0 l/m SW 0,00 h 13 W/m 7,8 km/h (2 Bft)
12.07.2016 21:00 15,2 C 99 % 1011,5 hPa 0,0 l/m SW 0,00 h 5 W/m 7,8 km/h (2 Bft)
12.07.2016 22:00 15,0 C 99 % 1011,6 hPa 0,0 l/m SW 0,00 h 0 W/m 9,4 km/h (2 Bft)
12.07.2016 23:00 15,0 C 99 % 1011,8 hPa 0,8 l/m W-SW 0,00 h 0 W/m 7,5 km/h (2 Bft)
13.07.2016 00:00 14,9 C 99 % 1011,9 hPa 2,4 l/m W-SW 0,00 h 0 W/m 5,4 km/h (1 Bft)
13.07.2016 01:00 14,7 C 99 % 1012,0 hPa 3,4 l/m W-SW 0,00 h 0 W/m 6,6 km/h (2 Bft)
13.07.2016 02:00 14,3 C 99 % 1011,9 hPa 0,4 l/m W 0,00 h 0 W/m 4,7 km/h (1 Bft)
13.07.2016 03:00 14,0 C 99 % 1011,8 hPa 0,4 l/m W 0,00 h 0 W/m 7,6 km/h (2 Bft)
13.07.2016 04:00 13,4 C 98 % 1011,9 hPa 0,0 l/m SW 0,00 h 0 W/m 6,3 km/h (2 Bft)
13.07.2016 05:00 13,0 C 98 % 1012,1 hPa 0,0 l/m SW 0,00 h 5 W/m 1,2 km/h (1 Bft)
13.07.2016 06:00 13,0 C 99 % 1012,3 hPa 0,0 l/m SW 0,00 h 30 W/m 3,9 km/h (1 Bft)
13.07.2016 07:00 13,4 C 98 % 1012,2 hPa 0,0 l/m SW 0,33 h 145 W/m 9,3 km/h (2 Bft)
13.07.2016 08:00 14,3 C 95 % 1012,3 hPa 0,0 l/m SW 0,33 h 219 W/m 11,3 km/h (2 Bft)
13.07.2016 09:00 15,4 C 90 % 1012,3 hPa 0,0 l/m SW 0,17 h 290 W/m 9,7 km/h (2 Bft)
13.07.2016 10:00 16,0 C 88 % 1012,2 hPa 0,0 l/m W-SW 0,08 h 196 W/m 13,0 km/h (3 Bft)
13.07.2016 11:00 16,2 C 84 % 1012,0 hPa 0,0 l/m W-SW 0,00 h 268 W/m 14,8 km/h (3 Bft)
13.07.2016 12:00 16,6 C 79 % 1011,8 hPa 0,0 l/m SW 0,08 h 226 W/m 15,7 km/h (3 Bft)
13.07.2016 13:00 14,7 C 90 % 1012,0 hPa 3,2 l/m W 0,00 h 127 W/m 14,9 km/h (3 Bft)
13.07.2016 14:00 14,2 C 95 % 1012,2 hPa 1,2 l/m W-SW 0,00 h 66 W/m 9,0 km/h (2 Bft)
13.07.2016 15:00 14,0 C 96 % 1012,2 hPa 1,2 l/m W-SW 0,00 h 73 W/m 6,7 km/h (2 Bft)
13.07.2016 16:00 12,3 C 96 % 1012,6 hPa 6,4 l/m W 0,00 h 40 W/m 12,7 km/h (3 Bft)
13.07.2016 17:00 12,1 C 97 % 1013,3 hPa 2,8 l/m W 0,00 h 19 W/m 2,5 km/h (1 Bft)
13.07.2016 18:00 12,3 C 98 % 1013,9 hPa 1,6 l/m W-SW 0,00 h 25 W/m 7,4 km/h (2 Bft)
13.07.2016 19:00 12,0 C 98 % 1014,3 hPa 2,0 l/m W 0,00 h 13 W/m 13,0 km/h (3 Bft)
13.07.2016 20:00 11,3 C 97 % 1014,6 hPa 0,2 l/m W-SW 0,00 h 9 W/m 9,5 km/h (2 Bft)
13.07.2016 21:00 11,2 C 98 % 1015,5 hPa 0,0 l/m W-SW 0,00 h 5 W/m 11,0 km/h (2 Bft)
13.07.2016 22:00 11,2 C 98 % 1015,9 hPa 0,0 l/m SW 0,00 h 0 W/m 8,6 km/h (2 Bft)
13.07.2016 23:00 11,0 C 98 % 1015,5 hPa 0,0 l/m SW 0,00 h 0 W/m 8,4 km/h (2 Bft)
14.07.2016 00:00 10,7 C 99 % 1015,0 hPa 0,0 l/m SW 0,00 h 0 W/m 7,5 km/h (2 Bft)
14.07.2016 01:00 10,6 C 98 % 1015,3 hPa 0,0 l/m SW 0,00 h 0 W/m 7,3 km/h (2 Bft)
14.07.2016 02:00 10,4 C 98 % 1015,3 hPa 0,2 l/m W-SW 0,00 h 0 W/m 8,4 km/h (2 Bft)
14.07.2016 03:00 9,9 C 97 % 1015,2 hPa 0,0 l/m W-SW 0,00 h 0 W/m 11,6 km/h (2 Bft)
14.07.2016 04:00 9,7 C 97 % 1015,0 hPa 0,0 l/m W-SW 0,00 h 0 W/m 10,7 km/h (2 Bft)
14.07.2016 05:00 9,7 C 97 % 1014,7 hPa 0,0 l/m W-SW 0,00 h 5 W/m 12,9 km/h (3 Bft)
14.07.2016 06:00 9,9 C 97 % 1014,9 hPa 0,0 l/m W 0,00 h 10 W/m 13,2 km/h (3 Bft)
14.07.2016 07:00 10,0 C 97 % 1015,3 hPa 1,4 l/m W 0,00 h 29 W/m 12,1 km/h (2 Bft)
14.07.2016 08:00 10,5 C 98 % 1015,7 hPa 0,0 l/m W-NW 0,00 h 82 W/m 13,6 km/h (3 Bft)
14.07.2016 09:00 11,3 C 96 % 1016,2 hPa 0,0 l/m W-NW 0,00 h 142 W/m 14,6 km/h (3 Bft)
14.07.2016 10:00 12,4 C 89 % 1016,7 hPa 0,0 l/m NW 0,25 h 345 W/m 19,2 km/h (3 Bft)
14.07.2016 11:00 13,3 C 80 % 1017,2 hPa 0,0 l/m W-NW 0,17 h 390 W/m 18,4 km/h (3 Bft)
14.07.2016 12:00 14,1 C 73 % 1017,4 hPa 0,0 l/m N-NW 0,42 h 458 W/m 17,4 km/h (3 Bft)
14.07.2016 13:00 14,9 C 68 % 1017,7 hPa 0,0 l/m W-NW 0,25 h 509 W/m 14,1 km/h (3 Bft)
14.07.2016 14:00 16,3 C 62 % 1017,7 hPa 0,0 l/m N-NW 0,58 h 668 W/m 11,9 km/h (2 Bft)
14.07.2016 15:00 16,2 C 61 % 1017,7 hPa 0,0 l/m N-NO 0,08 h 248 W/m 9,9 km/h (2 Bft)
14.07.2016 16:00 15,7 C 68 % 1017,6 hPa 1,0 l/m N-NO 0,42 h 356 W/m 8,2 km/h (2 Bft)
14.07.2016 17:00 13,2 C 89 % 1018,0 hPa 0,4 l/m SW 0,00 h 76 W/m 9,4 km/h (2 Bft)
14.07.2016 18:00 13,3 C 87 % 1018,4 hPa 0,0 l/m SW 0,83 h 425 W/m 12,9 km/h (3 Bft)
14.07.2016 19:00 12,2 C 88 % 1018,6 hPa 0,0 l/m W-SW 0,08 h 57 W/m 14,1 km/h (3 Bft)
14.07.2016 20:00 11,7 C 92 % 1019,6 hPa 2,2 l/m W 0,00 h 7 W/m 12,2 km/h (2 Bft)
14.07.2016 21:00 10,0 C 94 % 1020,6 hPa 1,0 l/m W 0,00 h 5 W/m 8,6 km/h (2 Bft)
14.07.2016 22:00 9,9 C 96 % 1021,1 hPa 0,0 l/m N 0,00 h 0 W/m 0,4 km/h (0 Bft)
14.07.2016 23:00 9,4 C 97 % 1021,5 hPa 0,0 l/m N 0,00 h 0 W/m 0,0 km/h (0 Bft)
15.07.2016 00:00 9,0 C 98 % 1021,8 hPa 0,0 l/m N 0,00 h 0 W/m 0,0 km/h (0 Bft)
15.07.2016 01:00 8,5 C 98 % 1022,0 hPa 0,0 l/m N 0,00 h 0 W/m 0,0 km/h (0 Bft)
15.07.2016 02:00 8,5 C 99 % 1022,4 hPa 0,2 l/m N 0,00 h 0 W/m 0,0 km/h (0 Bft)
15.07.2016 03:00 8,4 C 99 % 1022,3 hPa 0,0 l/m N 0,00 h 0 W/m 0,0 km/h (0 Bft)
15.07.2016 04:00 8,3 C 99 % 1022,3 hPa 0,0 l/m N 0,00 h 0 W/m 0,0 km/h (0 Bft)
15.07.2016 05:00 8,6 C 99 % 1022,7 hPa 0,0 l/m N 0,00 h 5 W/m 0,7 km/h (0 Bft)
15.07.2016 06:00 8,8 C 99 % 1023,3 hPa 0,0 l/m N 0,00 h 15 W/m 0,0 km/h (0 Bft)
15.07.2016 07:00 9,7 C 100 % 1023,6 hPa 0,0 l/m N 0,17 h 102 W/m 0,0 km/h (0 Bft)
15.07.2016 08:00 11,2 C 95 % 1023,8 hPa 0,0 l/m W 0,33 h 211 W/m 5,5 km/h (1 Bft)
15.07.2016 09:00 12,6 C 87 % 1024,0 hPa 0,0 l/m NW 0,67 h 421 W/m 9,0 km/h (2 Bft)
15.07.2016 10:00 13,6 C 81 % 1024,1 hPa 0,0 l/m NW 0,33 h 364 W/m 7,2 km/h (2 Bft)
15.07.2016 11:00 13,0 C 82 % 1024,4 hPa 0,0 l/m NW 0,00 h 100 W/m 5,1 km/h (1 Bft)
15.07.2016 12:00 14,1 C 78 % 1024,3 hPa 0,0 l/m NW 0,25 h 468 W/m 3,5 km/h (1 Bft)
15.07.2016 13:00 15,6 C 71 % 1024,1 hPa 0,0 l/m NW 0,33 h 553 W/m 6,0 km/h (2 Bft)
15.07.2016 14:00 14,8 C 72 % 1024,4 hPa 0,0 l/m N 0,00 h 72 W/m 9,1 km/h (2 Bft)
15.07.2016 15:00 14,8 C 74 % 1024,6 hPa 0,0 l/m N-NW 0,00 h 123 W/m 4,2 km/h (1 Bft)
15.07.2016 16:00 15,4 C 70 % 1024,6 hPa 0,0 l/m N-NW 0,00 h 181 W/m 8,9 km/h (2 Bft)
15.07.2016 17:00 15,2 C 68 % 1024,8 hPa 0,0 l/m N-NW 0,00 h 78 W/m 7,9 km/h (2 Bft)
15.07.2016 18:00 15,2 C 65 % 1024,8 hPa 0,0 l/m N 0,00 h 66 W/m 8,6 km/h (2 Bft)
15.07.2016 19:00 15,1 C 69 % 1024,8 hPa 0,0 l/m N 0,00 h 76 W/m 2,4 km/h (1 Bft)
15.07.2016 20:00 14,4 C 77 % 1024,9 hPa 0,0 l/m N 0,00 h 36 W/m 1,5 km/h (1 Bft)
15.07.2016 21:00 12,8 C 86 % 1025,1 hPa 0,0 l/m N 0,00 h 6 W/m 0,0 km/h (0 Bft)
15.07.2016 22:00 10,4 C 91 % 1025,6 hPa 0,0 l/m N 0,00 h 0 W/m 0,0 km/h (0 Bft)
15.07.2016 23:00 9,2 C 93 % 1025,8 hPa 0,0 l/m N 0,00 h 0 W/m 0,1 km/h (0 Bft)
16.07.2016 00:00 8,5 C 95 % 1025,8 hPa 0,0 l/m N 0,00 h 0 W/m 0,0 km/h (0 Bft)
16.07.2016 01:00 8,3 C 96 % 1025,7 hPa 0,0 l/m N 0,00 h 0 W/m 0,0 km/h (0 Bft)
16.07.2016 02:00 8,5 C 97 % 1025,3 hPa 0,0 l/m N 0,00 h 0 W/m 0,0 km/h (0 Bft)
16.07.2016 03:00 8,3 C 97 % 1025,2 hPa 0,0 l/m N 0,00 h 0 W/m 0,0 km/h (0 Bft)
16.07.2016 04:00 8,3 C 98 % 1025,2 hPa 0,0 l/m N 0,00 h 0 W/m 0,0 km/h (0 Bft)
16.07.2016 05:00 8,2 C 98 % 1025,3 hPa 0,0 l/m N 0,00 h 7 W/m 0,0 km/h (0 Bft)
16.07.2016 06:00 7,8 C 98 % 1025,6 hPa 0,0 l/m N 0,00 h 35 W/m 0,0 km/h (0 Bft)
16.07.2016 07:00 9,3 C 97 % 1025,5 hPa 0,0 l/m N 0,50 h 159 W/m 0,3 km/h (0 Bft)
16.07.2016 08:00 12,2 C 91 % 1025,5 hPa 0,0 l/m N 1,00 h 327 W/m 2,5 km/h (1 Bft)
16.07.2016 09:00 14,7 C 79 % 1025,4 hPa 0,0 l/m N 1,00 h 493 W/m 1,3 km/h (1 Bft)
16.07.2016 10:00 17,0 C 64 % 1025,5 hPa 0,0 l/m O-NO 0,83 h 597 W/m 6,6 km/h (2 Bft)
16.07.2016 11:00 17,3 C 60 % 1025,4 hPa 0,0 l/m O-NO 0,50 h 619 W/m 5,8 km/h (1 Bft)
16.07.2016 12:00 18,7 C 51 % 1025,2 hPa 0,0 l/m O-SO 0,42 h 611 W/m 8,4 km/h (2 Bft)
16.07.2016 13:00 18,9 C 53 % 1024,6 hPa 0,0 l/m SW 0,58 h 639 W/m 8,6 km/h (2 Bft)
16.07.2016 14:00 19,5 C 51 % 1024,1 hPa 0,0 l/m S 0,50 h 585 W/m 7,8 km/h (2 Bft)
16.07.2016 15:00 20,7 C 47 % 1023,6 hPa 0,0 l/m SO 0,83 h 743 W/m 6,2 km/h (2 Bft)
16.07.2016 16:00 21,2 C 47 % 1023,2 hPa 0,0 l/m NW 1,00 h 755 W/m 9,7 km/h (2 Bft)
16.07.2016 17:00 21,0 C 47 % 1022,8 hPa 0,0 l/m W 1,00 h 565 W/m 9,1 km/h (2 Bft)
16.07.2016 18:00 20,1 C 51 % 1022,6 hPa 0,0 l/m NW 0,25 h 160 W/m 4,4 km/h (1 Bft)
16.07.2016 19:00 18,6 C 63 % 1022,6 hPa 0,0 l/m W 0,00 h 62 W/m 7,9 km/h (2 Bft)
16.07.2016 20:00 17,5 C 65 % 1022,8 hPa 0,0 l/m W 0,00 h 28 W/m 3,5 km/h (1 Bft)
16.07.2016 21:00 16,0 C 75 % 1022,9 hPa 0,0 l/m N 0,00 h 6 W/m 0,0 km/h (0 Bft)
16.07.2016 22:00 14,5 C 81 % 1023,0 hPa 0,0 l/m N 0,00 h 0 W/m 0,0 km/h (0 Bft)
16.07.2016 23:00 13,0 C 87 % 1023,0 hPa 0,0 l/m N 0,00 h 0 W/m 0,0 km/h (0 Bft)
17.07.2016 00:00 12,7 C 88 % 1022,8 hPa 0,0 l/m N 0,00 h 0 W/m 0,0 km/h (0 Bft)
17.07.2016 01:00 13,0 C 88 % 1022,7 hPa 0,0 l/m N 0,00 h 0 W/m 0,0 km/h (0 Bft)
17.07.2016 02:00 11,5 C 90 % 1022,3 hPa 0,0 l/m N 0,00 h 0 W/m 0,0 km/h (0 Bft)
17.07.2016 03:00 10,8 C 93 % 1022,1 hPa 0,0 l/m N 0,00 h 0 W/m 0,1 km/h (0 Bft)
17.07.2016 04:00 11,3 C 94 % 1021,8 hPa 0,0 l/m N 0,00 h 0 W/m 0,8 km/h (0 Bft)
17.07.2016 05:00 11,4 C 95 % 1021,8 hPa 0,0 l/m N 0,00 h 6 W/m 0,0 km/h (0 Bft)
17.07.2016 06:00 12,2 C 93 % 1021,9 hPa 0,0 l/m N 0,00 h 21 W/m 0,0 km/h (0 Bft)
17.07.2016 07:00 13,3 C 89 % 1022,0 hPa 0,0 l/m W 0,00 h 75 W/m 3,9 km/h (1 Bft)
17.07.2016 08:00 15,3 C 79 % 1022,1 hPa 0,0 l/m W 0,67 h 319 W/m 8,8 km/h (2 Bft)
17.07.2016 09:00 17,8 C 70 % 1021,8 hPa 0,0 l/m SW 1,00 h 505 W/m 9,7 km/h (2 Bft)
17.07.2016 10:00 19,8 C 64 % 1021,5 hPa 0,0 l/m S-SW 1,00 h 656 W/m 11,3 km/h (2 Bft)
17.07.2016 11:00 21,3 C 62 % 1021,2 hPa 0,0 l/m W-SW 1,00 h 763 W/m 9,9 km/h (2 Bft)
17.07.2016 12:00 22,8 C 59 % 1020,8 hPa 0,0 l/m S-SW 1,00 h 840 W/m 9,5 km/h (2 Bft)
17.07.2016 13:00 23,9 C 57 % 1020,2 hPa 0,0 l/m SW 1,00 h 904 W/m 8,7 km/h (2 Bft)
17.07.2016 14:00 24,3 C 56 % 1019,7 hPa 0,0 l/m NO 0,75 h 742 W/m 7,8 km/h (2 Bft)
17.07.2016 15:00 23,9 C 56 % 1019,4 hPa 0,0 l/m W-SW 0,08 h 287 W/m 5,6 km/h (1 Bft)
17.07.2016 16:00 24,6 C 55 % 1019,0 hPa 0,0 l/m W-SW 0,42 h 459 W/m 5,5 km/h (1 Bft)
17.07.2016 17:00 25,1 C 55 % 1018,6 hPa 0,0 l/m SW 0,33 h 290 W/m 3,7 km/h (1 Bft)
17.07.2016 18:00 25,0 C 55 % 1018,4 hPa 0,0 l/m W-SW 0,92 h 432 W/m 3,9 km/h (1 Bft)
17.07.2016 19:00 23,5 C 65 % 1018,3 hPa 0,0 l/m W-SW 0,25 h 88 W/m 1,7 km/h (1 Bft)
17.07.2016 20:00 21,0 C 76 % 1018,5 hPa 0,0 l/m N 0,00 h 21 W/m 0,3 km/h (0 Bft)
17.07.2016 21:00 20,5 C 77 % 1018,8 hPa 0,0 l/m W-SW 0,00 h 5 W/m 1,7 km/h (1 Bft)
17.07.2016 22:00 19,1 C 83 % 1019,2 hPa 0,0 l/m W-SW 0,00 h 0 W/m 1,6 km/h (1 Bft)
17.07.2016 23:00 17,7 C 87 % 1019,5 hPa 0,0 l/m N 0,00 h 0 W/m 0,0 km/h (0 Bft)
Min-Datum _ 16.07.16 16.07.16 11.07.16 - - - - 11.07.16
_ Min-Zeit 06:15 15:05 15:15 - - - - 00:15
Minimum _ 7,5 C 44 % 1008,2 hPa - - - - 0,0 km/h (0 Bft)
Max-Datum _ 11.07.16 15.07.16 15.07.16 12.07.16 - 11.07.16 14.07.16 11.07.16
_ Max-Zeit 13:55 06:40 22:50 04:15 - 07:40 13:45 16:40
Maximum _ 28,9 C 100 % 1025,9 hPa 7,8 l/m - 0,08 h 1155 W/m 32,2 km/h
W (5 Bft)
Durchschnitt _ 15,7 C 84 % 1017,1 hPa #74,2 l/m SW #29:00 h 227 W/m 6,5 km/h (2 Bft)